Location: Ammerl�gen
(47.2167°N, 9.6000°E)
Time: 12:16:29
(UTC+00:00)

CZ-4 R/B DEB - Pass Details

Date: 21 October 2021
Orbit: 738 x 791 km, 98.5° (Epoch: 26 November)

Event Time Altitude Azimuth Distance (km) Brightness Sun altitude
Exits shadow 19:08:27 67° 267° (W) 803 ? -28.6°
Drops below altitude 10° 19:13:16 10° 341° (NNW) 2,259 ? -29.4°
Sets 19:15:35 0° 344° (NNW) 3,189 ? -29.8°
